Volver al catálogo

SL-16 DEB

ActivoLEO
NORAD 39723·DEBRIS·🇷🇺 Russia

Lanzado Dec 25, 1992 desde Baikonur Cosmodrome

Loading…

Próximos Pases (próximas 24 horas)

TLE

EnvejeciendoSource: Space-Track

Época: Sep 12, 2026, 16:16 UTC

1 39723U 92093KP  26255.67802457  .00001847  00000-0  68912-3 0  9995
2 39723  71.0906 241.0893 0049059  12.6705 347.5648 14.32563722252454

Sigue SL-16 DEB en tiempo real con AllMySat

Download on the App Store